Location: Grand Lay
(47.3253°N, 0.9468°E)
Time: 16:17:11
(UTC+00:00)

NOSS 2-2 (D) - Pass Details

Date: 18 January 2026
Orbit: 384 x 1700 km, 63.3° (Epoch: 10 February)

Event Time Altitude Azimuth Distance (km) Brightness Sun altitude
Rises 06:44:48 0° 206° (SSW) 2,650 6.8 -8.8°
Reaches altitude 10° 06:47:12 10° 200° (SSW) 1,627 5.8 -8.4°
Maximum altitude 06:50:33 46° 126° (SE) 566 4.0 -7.9°
Drops below altitude 10° 06:53:28 10° 51° (NE) 1,426 5.9 -7.4°
Sets 06:55:27 0° 45° (NE) 2,274 6.8 -7.1°
